Zurück zum Katalog

BREEZE-KM R/B

AktivPO
NORAD 38737·ROCKET BODY·🇷🇺 Russia

Gestartet Jul 28, 2012 von Plesetsk Cosmodrome

Loading…

Nächste Überflüge (nächste 24 Stunden)

TLE

AktuellSource: Space-Track

Epoche: Sep 14, 2026, 22:25 UTC

1 38737U 12041E   26257.93437252  .00000021  00000-0  33298-4 0  9995
2 38737  82.4783 134.5810 0226220  46.4549 315.5098 12.81849470661299

Verfolge BREEZE-KM R/B in Echtzeit mit AllMySat

Download on the App Store